Regional Weather Roundup
Issued by NWS

Home | Current Version | Previous Version | Graphics & Text | Print | Product List | Glossary On
Versions: 1 2 3 4 5 6 7 8 9 10 11 12 13 14 15 16 17 18 19 20 21 22 23 24 25 26 27 28 29 30 31 32 33 34 35 36 37 38 39 40 41 42 43 44 45 46 47 48 49 50
000
ASUS45 KBOU 051707
RWRCO

WEATHER ROUNDUP FOR COLORADO
NATIONAL WEATHER SERVICE DENVER/BOULDER CO
1100 AM MDT TUE MAY 05 2015

NOTE: "FAIR" INDICATES FEW OR NO CLOUDS BELOW 12000 FEET WITH NO
SIGNIFICANT WEATHER AND/OR OBSTRUCTIONS TO VISIBILITY.

COZ001>005-013-030-031-051800-
...NORTHWEST COLORADO...

CITY           SKY/WX    TMP DP  RH WIND       PRES   REMARKS
CRAIG          MOSUNNY   59  42  53 VRB6      29.89F
HAYDEN         NOT AVBL
MEEKER         MOSUNNY   60  39  45 CALM      29.88F
MOUNT WERNER   NOT AVBL
STEAMBOAT SPGS MOSUNNY   57  38  50 SW5       29.90F
WALDEN         MOSUNNY   54  36  50 S3        29.96F
$$

COZ006>008-011-051800-
...WEST CENTRAL VALLEYS...

CITY           SKY/WX    TMP DP  RH WIND       PRES   REMARKS
GRAND JUNCTION CLOUDY    60  45  57 W7        29.85S
MONTROSE       LGT RAIN  55  47  74 N5        29.90S
EAGLE          MOSUNNY   57  39  51 CALM      29.91F
RIFLE          PTSUNNY   60  42  51 NW5       29.85F
DELTA          CLOUDY    58  48  69 CALM      29.88S
NUCLA          CLOUDY    50  46  87 NW3       29.96S
$$

COZ017>023-064>068-051800-
...SOUTHWEST COLORADO...

CITY           SKY/WX    TMP DP  RH WIND       PRES   REMARKS
DURANGO        LGT RAIN  46  44  93 SW7       29.94S FOG
CORTEZ         CLOUDY    50  46  86 CALM      29.95R
PAGOSA SPRINGS CLOUDY    46  43  88 CALM      29.97S
TELLURIDE      LGT RAIN  42  38  88 SW5       30.01S
WOLF CREEK PAS NOT AVBL
$$

COZ009-010-012-014-032>034-037-058>063-051800-
...CENTRAL COLORADO...

CITY           SKY/WX    TMP DP  RH WIND       PRES   REMARKS
ASPEN          PTSUNNY   56  39  53 N6        29.91F
BUENA VISTA    NOT AVBL
COPPER MTN     PTSUNNY   41  28  60 SE9       30.12S
BERTHOUD PASS  HAZE      28  21  74 SE15      30.17R VSB<1/4 WCI  17
COTTONWOOD PAS LGT RAIN  43  39  87 SE3       30.04F
GUNNISON       CLOUDY    48  37  66 W3        29.97S
KREMMLING      MOSUNNY   52  39  62 CALM      29.95F
LEADVILLE      CLOUDY    40  34  79 CALM      30.03S
MONARCH PASS   CLOUDY    32  32 100 MISG      30.17R
SALIDA         CLOUDY    46  44  90 SE3       30.04F
SUNLIGHT       CLOUDY    43  34  70 CALM      30.09F
WILKERSON PASS SNOW      34  34 100 NE8       30.12F VSB 1/4 WCI  27
$$

COZ069>075-051800-
...SAN LUIS VALLEY/SANGRE DE CRISTO MOUNTAINS...

CITY           SKY/WX    TMP DP  RH WIND       PRES   REMARKS
ALAMOSA        LGT RAIN  45  41  86 W7        29.96S
LA VETA PASS   FOG       37  36  93 MISG      30.04F VSB<1/4
SAGUACHE       LGT RAIN  45  43  93 S9        29.96S
$$

COZ035-036-038>040-051800-
...NORTHERN COLORADO FRONT RANGE...

CITY           SKY/WX    TMP DP  RH WIND       PRES   REMARKS
DENVER INTL AP CLOUDY    55  48  77 SE12      29.95F
DMNS CITY PARK   N/A     53  49  86 NW3       29.96S
AURORA         NOT AVBL
FRONT RANGE AP CLOUDY    55  50  82 SE9       29.97S
ERIE MUNI ARPT CLOUDY    51  50  97 N6        29.96S FOG
BOULDER MUN AP CLOUDY    50  50 100 NE5       29.97R FOG
CENTENNIAL     CLOUDY    51  49  92 NW6       29.96F FOG
BROOMFIELD     CLOUDY    50  50 100 CALM      29.97F FOG
FORT COLLINS   CLOUDY    48  48 100 S5        29.99R
LONGMONT       CLOUDY    54  50  88 CALM      29.98S FOG
$$

COZ041-046-047-076>085-087-088-051800-
...PIKES PEAK/PALMER DIVIDE AND SOUTHERN FOOTHILLS...

CITY           SKY/WX    TMP DP  RH WIND       PRES   REMARKS
COLO. SPRINGS  LGT RAIN  50  48  93 E14       29.96F FOG
A. F. ACADEMY  NOT AVBL
ELLICOTT       LGT RAIN N/A N/A N/A SE16      29.95F
FALCON         LGT RAIN  47  47 100 E10       29.99F
FORT CARSON    NOT AVBL
LIMON          LGT RAIN  51  50  96 E17       29.97S
MONUMENT HILL  LGT RAIN  45  45 100 E8        29.99S
TRINIDAD       LGT RAIN  53  50  89 E6        29.90S
$$

COZ042>045-048>051-090-091-051800-
...NORTHEAST COLORADO...

CITY           SKY/WX    TMP DP  RH WIND       PRES   REMARKS
GREELEY ARPT   CLOUDY    52  45  76 SE9       29.98S
AKRON          LGT RAIN  48  48 100 E12       29.99S VSB 1/2
BURLINGTON     LGT RAIN  56  53  90 E13       29.96F
WRAY           CLOUDY   N/A N/A N/A E8        30.00S FOG
STERLING       CLOUDY    52  50  93 E6        29.98F FOG
HOLYOKE        NOT AVBL
FORT MORGAN    RAIN      50  47  90 E10       29.99S
$$

COZ086-089-092>099-051800-
...SOUTHEAST COLORADO...

CITY           SKY/WX    TMP DP  RH WIND       PRES   REMARKS
PUEBLO         LGT RAIN  55  52  89 E18       29.90F
LA JUNTA       LGT RAIN  57  53  86 E17       29.89F
LAMAR          LGT RAIN  58  56  93 E10       29.87F
SPRINGFIELD      N/A     55  53  93 E13       29.88F
$$



USA.gov is the U.S. government's official web portal to all federal, state and local government web resources and services.